Weather Roundup
Issued by NWS Chicago, IL

Home | Current Version | Previous Version | Text Only | Print | Product List | Glossary On
Versions: 1 2 3 4 5 6 7 8 9 10 11 12 13 14 15 16 17 18 19 20 21 22 23 24 25 26 27 28 29 30 31 32 33 34 35 36 37 38 39 40 41 42 43 44 45 46 47 48 49 50
000
NZUS59 KLOT 020821
HRRLOT

CHICAGO AREA WEATHER ROUNDUP
NATIONAL WEATHER SERVICE CHICAGO/ROMEOVILLE IL
300 AM CDT THU JUL 02 2015

NOTE: "FAIR" INDICATES FEW OR NO CLOUDS BELOW 12,000 FEET WITH NO
SIGNIFICANT WEATHER AND/OR OBSTRUCTIONS TO VISIBILITY.

* THESE STATIONS ARE NOT UNDER NWS QUALITY CONTROL. THEY ALSO MAY NOT
  REPORT WEATHER SUCH AS PRECIPITATION OR FOG.

ILZ005-006-012>014-019>023-020900-
NORTHEAST ILLINOIS

CITY           SKY/WX    TMP DP  RH WIND       PRES   REMARKS
OHARE          PTCLDY    53  50  89 NE6       30.00R
MIDWAY         CLOUDY    58  53  84 NE7       29.99S
AURORA         CLEAR     51  47  86 CALM      30.00F
JOLIET*        PTCLDY    54  52  92 N3        29.99S
WAUKEGAN       CLEAR     46  45  96 CALM      30.00S
DUPAGE AIRPORT CLEAR     50  47  89 N8        29.99S
WHEELING       CLEAR     52  49  89 CALM      30.01S
LEWIS AIRPORT* PTCLDY    53  50  90 N7        29.99S
NORTHERLY IS     N/A     55  51  86 N7          N/A
$$

WIZ051-052-058>065-066-070>072-020900-
SOUTHEAST WISCONSIN

CITY           SKY/WX    TMP DP  RH WIND       PRES   REMARKS
MILWAUKEE      CLEAR     53  47  79 NE8       30.01S
KENOSHA*       CLEAR     46  44  93 CALM      30.00F
RACINE*        CLEAR     54  48  80 NE9       30.02S
$$

INZ001>003-010>013-019-020-020900-
NORTHWEST INDIANA

CITY           SKY/WX    TMP DP  RH WIND       PRES   REMARKS
GARY*          NOT AVBL
MICHIGAN CITY* NOT AVBL
RENSSELAER*    NOT AVBL
VALPARAISO     MOCLDY    57  55  93 N3        29.97F
$$

LMZ740>746-020900-
SOUTHERN LAKE MICHIGAN

STATION/POSITION TIME  SKY/WX   TEMP WIND        PRES    VSBY
                                AIR  DIR/SP/G
                 (UTC)          (F)  (DEG/KT/KT) (MB)    (MI)
HARRISON CRIB    0800            54   40/  8/ 10   N/A
BURNHAM HARBOR   0800            55  350/  6/ 11   N/A
CALUMET HARBOR   0800            56  340/  7/ 11   N/A
BURNS HARBOR     0700            58  350/  9/ 12 1015.9F
MICHIGAN CITY    0800            58   20/ 11/ 12   N/A
$$

ABBREVIATIONS USED IN REMARKS
   TC - TEMPERATURE IN CELSIUS
  WCI - WIND CHILL INDEX
   HX - HEAT INDEX
  VSB - VISIBILITY
$$



USA.gov is the U.S. government's official web portal to all federal, state and local government web resources and services.